Location: Palo Alto
(37.4420°N, 122.1420°W)
Time: 22:18:44
(UTC-07:00)

ARGOS - Visible Passes

Search period start: 01 July 2015 00:00
Search period end: 11 July 2015 00:00
Orbit: 820 x 836 km, 98.7° (Epoch: 01 July)

Date Brightness Start Highest point End Pass type
(mag) Time Alt. Az. Time Alt. Az. Time Alt. Az.
01 Jul 3.2 22:28:10 32° SSE 22:30:41 69° ENE 22:36:03 10° N visible
02 Jul 5.4 00:09:41 12° WSW 00:11:32 13° W 00:13:51 10° WNW visible
02 Jul 3.6 22:09:27 24° SE 22:12:15 46° ENE 22:17:23 10° N visible
02 Jul 5.0 23:50:58 18° WSW 23:52:47 20° W 23:56:36 10° NW visible
03 Jul 4.1 21:50:44 18° ESE 21:53:52 31° ENE 21:58:35 10° N visible
03 Jul 4.5 23:32:15 25° SW 23:34:06 30° W 23:38:45 10° NW visible
04 Jul 4.6 21:32:01 12° ESE 21:35:30 22° ENE 21:39:34 10° NNE visible
04 Jul 3.9 23:13:33 32° SSW 23:15:29 45° W 23:20:37 10° NNW visible
05 Jul 5.0 21:14:25 10° E 21:17:11 15° ENE 21:20:13 10° NNE visible
05 Jul 3.3 22:54:50 37° S 22:56:56 69° WSW 23:02:18 10° NNW visible
06 Jul 3.1 22:36:07 35° SSE 22:38:26 81° ENE 22:43:50 10° N visible
07 Jul 5.6 00:18:01 10° WSW 00:19:26 11° W 00:20:26 10° WNW visible
07 Jul 3.4 22:17:25 29° SE 22:19:59 54° ENE 22:25:14 10° N visible
07 Jul 5.2 23:58:56 15° WSW 00:00:39 17° W 00:03:56 10° NW visible
08 Jul 3.9 21:58:42 21° ESE 22:01:35 37° ENE 22:06:29 10° N visible
08 Jul 4.7 23:40:14 22° WSW 23:41:56 26° W 23:46:17 10° NW visible
09 Jul 4.4 21:40:01 15° ESE 21:43:12 25° ENE 21:47:34 10° NNE visible
09 Jul 4.2 23:21:31 30° SW 23:23:18 38° W 23:28:15 10° NNW visible
10 Jul 4.8 21:21:34 10° ESE 21:24:52 17° ENE 21:28:23 10° NNE visible
10 Jul 3.5 23:02:49 37° SSW 23:04:43 57° W 23:10:00 10° NNW visible
